Flag for Germany Weather for the Past 2 Weeks in Brühl (Rhineland), North Rhine-Westphalia, Germany

Now
66 °F

Mild.


Feels Like: 66 °F
Forecast: 50 / 74 °F
Wind: 3 mph from East

Location: Noervenich

Current Time: May 5, 2016 at 4:55:30 PM

Latest Report: May 5, 2016 at 4:00 PM


Visibility: 7 mi

Pressure: 30.17 "Hg

Humidity: 36%

Dew Point: 38 °F

Location of Brühl (Rhineland)Location

Historic Weather in Brühl (Rhineland) — Graph

°F

Brühl (Rhineland) Temperature Yesterday

Maximum temperature yesterday: 59 °F (at 4:00 PM)
Minimum temperature yesterday: 38 °F (at 6:00 AM)
Average temperature yesterday: 50 °F

High & Low Weather Summary for the Past Weeks

 TemperatureHumidityPressure
High67 °F (Apr 21, 4:00 PM)96% (Apr 30, 7:00 AM)30.44 "Hg (Apr 30, 7:00 AM)
Low34 °F (Apr 26, 6:00 AM)29% (Apr 21, 4:00 PM)29.56 "Hg (Apr 26, 1:00 PM)
Average47 °F68%30.06 "Hg
* Reported Apr 20 3:00 PM — May 5 3:00 PM, Brühl (Rhineland), Weather by CustomWeather, © 2016

Note: Actual official high and low records may vary slightly from our data, if they occured in-between our weather recording intervals... More about our weather records

Advertising

Brühl (Rhineland) Weather History for the Previous 24 Hours

Scroll right to see more
 ConditionsComfort  
Time TempWeatherWind HumidityBarometerVisibility
3:00 PM
Thu, May 5
64 °FMild.5 mph38%30.20 "Hg7 mi
1:00 PM62 °FPartly sunny.5 mph37%30.24 "Hg25 mi
12:00 PM59 °FPartly sunny.3 mph40%30.27 "Hg25 mi
10:00 AM54 °FPartly sunny.3 mph50%30.30 "Hg25 mi
9:00 AM50 °FScattered clouds.2 mph56%30.32 "Hg25 mi
7:00 AM39 °FPartly sunny.1 mph82%30.34 "Hg19 mi
6:00 AM38 °FPartly sunny.1 mph84%30.34 "Hg16 mi
4:00 AM39 °FPassing clouds.1 mph81%30.35 "Hg16 mi
3:00 AM40 °FPassing clouds.N/A80%30.35 "Hg16 mi
1:00 AM46 °FPassing clouds.N/A63%30.35 "Hg19 mi
12:00 AM46 °FPassing clouds.N/A62%30.34 "Hg19 mi
11:00 PM
Wed, May 4
N/APassing clouds.2 mphN/AN/A10 mi
10:00 PM50 °FCool.No wind53%30.34 "Hg8 mi
9:00 PM54 °FCool.1 mph47%30.34 "Hg8 mi
7:00 PM58 °FRefreshingly cool.1 mph35%30.34 "Hg5 mi
6:00 PM59 °FRefreshingly cool.2 mph35%30.35 "Hg6 mi
4:00 PM59 °FRefreshingly cool.N/A34%30.37 "Hg6 mi
Weather by CustomWeather, © 2016

See weather overviewHow to use our weather pages